Probability
3 3 3 3 3 3 2 1 0 0 0 0 0 0 0 0 0 0 0 0 1 1 2 2 2 2 2 2 1 1 2 3 4 4 4 3 3 2 1 0 0 0 0
3 3 3 3 3 3 2 1 0 0 0 0 0 0 0 0 0 0 0 0 1 1 2 2 2 2 3 2 1 1 2 3 4 5 4 3 3 2 1 0 0 0 0
4 4 3 3 3 3 3 2 1 1 0 1 1 1 0 0 0 0 0 0 0 0 1 2 3 3 3 3 3 3 3 4 6 7 6 4 3 2 1 0 0 0 0
6 5 4 4 5 5 6 5 3 2 2 2 2 1 0 0 0 0 0 0 0 0 1 3 5 6 6 6 6 5 5 5 6 6 5 4 3 2 2 1 1 1 1
10 8 7 6 7 8 8 7 6 5 5 5 4 2 1 1 0 0 0 0 0 0 1 3 6 8 9 10 9 7 7 6 6 5 4 4 3 3 3 2 2 2 2
14 12 9 8 9 10 10 9 8 7 7 7 6 4 2 1 0 0 0 1 1 1 2 4 6 8 10 11 11 9 7 7 6 6 5 5 4 3 3 3 3 3 3
15 14 11 10 11 11 11 10 8 7 7 8 7 4 2 1 1 1 1 2 2 3 3 4 5 6 7 9 10 9 7 6 7 7 6 7 6 5 4 3 3 3 3
13 13 13 12 12 12 12 10 8 7 7 7 6 4 2 2 2 2 3 3 3 3 3 4 4 4 5 6 6 6 6 6 6 7 8 9 8 7 5 5 4 3 3
11 12 12 12 12 12 11 10 8 7 7 7 5 4 3 3 3 3 3 3 3 3 3 3 3 4 4 4 4 4 5 5 5 6 8 10 10 10 9 8 6 4 3
12 13 13 11 11 11 10 9 7 7 7 6 5 4 3 3 3 3 3 3 3 4 4 4 4 5 4 4 4 3 3 3 4 5 7 9 10 11 12 11 8 5 4
15 16 15 13 11 10 9 8 7 6 6 6 6 5 4 4 4 3 3 3 4 5 5 4 5 5 4 4 3 3 1 1 2 3 5 6 6 8 9 10 9 8 6
15 17 17 16 13 12 10 8 7 6 6 6 6 6 5 5 5 4 4 4 4 5 5 4 4 4 3 3 3 2 1 0 0 1 2 3 3 4 6 7 7 8 9
15 16 16 16 14 12 10 8 7 6 6 6 6 5 5 5 4 5 5 4 4 4 3 3 3 3 3 3 3 2 1 0 0 0 0 1 1 2 3 3 4 5 6
15 15 14 13 12 11 9 8 7 6 6 5 4 4 5 4 4 4 4 4 3 3 2 1 2 2 3 3 2 1 0 0 0 0 0 0 0 1 1 1 1 1 2
12 13 13 11 10 9 8 7 7 7 6 5 4 3 4 4 3 3 3 3 3 3 2 1 1 1 1 2 1 0 0 0 0 0 0 0 0 0 0 0 0 0 0
8 10 11 10 9 8 7 7 7 7 6 5 4 3 3 3 3 3 3 3 3 3 3 2 1 0 0 0 0 0 0 0 0 0 0 0 0 0 0 0 0 0 0
4 5 7 7 7 7 7 7 7 7 6 6 5 4 4 3 3 3 3 3 3 3 3 3 2 1 0 0 0 0 0 0 0 0 0 0 0 0 0 0 0 0 0
1 1 2 4 5 5 6 7 7 6 6 6 7 6 5 4 3 3 3 3 3 3 3 3 2 1 0 0 0 0 0 0 0 0 0 0 0 0 0 0 0 0 0
1 0 0 1 2 3 4 5 5 4 4 6 7 6 4 3 3 3 3 3 3 3 3 2 1 0 0 0 0 0 0 0 0 0 0 0 0 0 0 0 0 0 0
2 1 0 0 1 2 3 3 3 3 3 4 5 6 4 3 3 3 3 3 3 3 1 1 0 0 0 0 0 0 0 0 0 0 0 0 0 0 0 0 0 0 0
3 3 2 1 2 2 2 2 2 3 3 4 4 5 4 3 2 2 2 2 2 2 1 0 0 0 0 0 0 0 0 0 0 0 0 0 0 0 0 0 0 0 0
4 4 4 3 2 1 0 1 1 2 3 4 3 4 3 2 1 1 1 1 1 1 0 0 0 0 0 0 0 0 0 0 0 0 0 0 0 0 0 0 0 0 0
4 4 5 4 2 0 0 0 0 1 2 3 3 3 3 1 0 0 0 0 0 0 0 0 0 0 0 0 0 0 0 0 0 0 0 0 0 0 0 0 0 0 0
5 5 5 5 3 1 0 0 0 0 1 2 4 4 4 3 1 0 0 0 0 0 0 0 0 0 0 0 0 0 0 0 0 0 0 0 0 0 0 0 0 0 0
6 6 6 6 5 3 1 0 0 0 0 1 4 5 5 3 1 0 0 0 0 0 0 0 0 0 0 0 0 0 0 0 0 0 0 0 0 0 0 0 0 0 0
6 6 7 7 6 3 1 0 0 0 0 1 3 4 4 3 2 1 1 1 1 0 0 0 0 0 0 0 0 0 0 0 0 0 0 0 0 0 0 0 0 0 0
Wind_Speed
2 2 1 1 1 1 1 1 1 1 1 0 1 1 1 1 2 2 2 5 7 8 9 9 9 9 8 8 8 8 7 7 8 8 8 8 8 7 7 7 7 6 6
3 3 2 1 1 1 1 1 1 1 0 0 1 1 1 1 2 2 2 3 6 7 9 9 9 9 8 8 8 8 8 8 8 8 8 8 8 8 7 7 7 7 6
4 3 2 2 1 1 1 1 1 0 0 1 1 1 1 2 2 3 3 2 3 5 7 8 8 9 9 9 8 8 8 8 8 8 8 9 8 8 8 8 8 8 7
5 3 2 2 2 2 2 1 1 1 1 1 1 1 1 1 2 2 2 2 2 2 5 7 7 8 8 9 8 8 8 8 8 8 9 9 9 9 9 8 8 8 7
5 4 3 2 2 2 2 2 1 1 1 1 1 1 1 1 2 2 2 2 2 2 2 4 7 8 8 9 9 9 8 8 8 9 9 9 9 9 9 9 9 8 8
5 4 3 3 3 2 2 2 2 1 1 1 1 1 2 2 1 2 2 2 2 3 2 2 3 5 8 9 9 9 9 8 8 8 9 9 9 9 9 9 9 8 8
5 5 4 3 3 3 3 3 2 2 1 1 1 1 2 1 1 2 2 2 3 3 3 3 3 3 3 6 8 9 9 10 9 9 9 9 8 9 9 10 9 8 8
5 5 4 4 4 3 3 3 3 2 1 1 2 1 1 2 2 2 1 2 2 2 3 4 3 3 3 2 4 8 9 9 10 10 10 9 9 9 10 10 9 8 8
5 4 5 4 4 4 4 4 4 4 3 1 1 2 2 2 2 2 2 2 2 2 3 3 4 4 4 3 3 6 8 8 10 11 10 9 9 9 10 10 10 10 9
4 4 4 4 4 3 4 4 4 3 3 2 1 1 1 2 2 1 2 1 2 2 3 3 4 4 4 3 4 5 6 7 8 9 10 10 10 10 9 9 10 10 10
3 4 4 4 4 3 4 3 3 3 3 3 3 2 2 1 1 2 2 2 2 2 2 3 3 3 3 4 3 5 7 7 7 8 9 10 10 11 11 10 11 10 11
3 4 4 4 4 4 4 4 4 4 4 3 3 2 2 2 2 2 3 2 2 2 2 2 3 3 3 3 5 6 7 7 7 8 8 9 10 10 10 10 11 11 11
3 4 4 4 4 4 4 3 3 4 4 4 4 3 3 3 2 2 2 2 2 2 2 2 3 3 3 3 4 7 7 7 8 8 8 9 9 10 10 10 10 11 10
3 3 3 3 3 4 4 3 3 3 3 4 4 4 3 3 3 3 3 2 1 2 2 3 2 3 3 3 5 6 5 7 8 8 8 9 9 9 10 10 10 9 9
2 3 3 3 3 3 3 3 3 3 3 3 3 4 3 3 3 3 3 3 3 3 3 3 2 2 3 3 4 4 4 6 7 8 8 8 9 9 10 10 10 9 9
2 3 3 3 3 3 3 3 2 3 3 3 3 3 3 3 3 3 3 3 3 3 3 3 3 3 3 3 3 3 4 4 6 6 6 7 8 8 9 10 10 10 10
2 3 3 3 3 3 3 3 3 3 3 3 3 3 4 3 2 2 3 3 4 4 4 4 2 2 3 3 3 2 3 3 3 6 6 6 7 8 9 9 9 9 10
3 3 3 3 3 3 3 3 3 3 3 4 4 3 4 3 3 3 2 3 3 4 4 5 3 2 3 3 3 3 2 3 3 5 6 7 7 7 8 9 9 9 10
2 2 3 3 3 3 3 3 3 3 3 4 4 4 4 3 3 2 3 3 3 3 3 3 3 2 2 2 2 3 2 2 3 4 5 6 7 7 7 8 9 9 10
3 3 3 3 3 3 3 3 3 3 3 3 3 4 4 4 4 4 3 4 3 3 2 3 3 2 2 2 2 2 2 2 3 3 3 4 4 6 8 8 9 9 10
2 2 2 2 2 3 3 3 3 3 3 3 3 3 4 4 5 4 3 4 3 3 2 3 3 2 2 2 2 2 3 2 3 2 2 3 3 3 5 7 9 9 10
1 1 2 2 2 3 3 3 3 3 3 3 3 3 3 3 3 4 5 5 5 4 4 3 3 3 4 3 2 2 2 2 3 2 2 4 3 4 4 4 7 8 9
2 2 2 3 3 4 4 4 4 3 3 3 3 3 2 2 2 2 3 4 5 6 6 5 5 5 5 4 3 3 3 4 4 2 2 4 3 4 4 5 7 8 9
2 2 3 3 3 3 4 4 4 3 2 3 3 3 3 2 2 3 3 2 3 3 5 5 5 6 5 4 5 4 4 3 3 3 3 4 3 4 3 4 6 8 9
2 2 2 3 3 3 3 3 3 2 2 2 2 3 3 3 3 4 3 2 3 4 4 5 6 6 7 6 4 3 3 2 3 3 3 3 3 3 3 3 4 7 8
2 2 2 2 3 3 2 3 3 2 2 2 2 2 4 4 4 4 4 4 4 5 4 3 3 4 5 5 6 6 5 4 2 3 3 3 2 2 3 2 2 2 3
Wind_Direction
169 153 140 130 133 120 125 125 120 111 107 138 184 187 204 218 220 216 236 231 226 222 220 217 215 215 213 206 202 196 196 201 203 202 199 198 199 196 193 193 190 187 185
171 161 158 166 177 159 153 144 152 153 183 199 226 218 220 229 231 230 233 244 242 231 222 219 218 213 212 208 206 207 208 211 212 212 207 202 203 198 196 195 196 194 192
173 171 173 182 191 165 151 127 117 136 194 215 252 252 245 245 235 237 232 237 246 240 229 221 217 212 213 213 210 214 214 214 216 218 216 209 205 200 200 200 200 198 198
179 171 179 194 182 157 155 153 165 187 233 227 245 261 263 259 251 243 236 236 241 247 238 223 212 210 214 217 218 219 219 218 217 218 219 215 210 204 204 201 200 199 200
184 177 188 193 173 161 172 186 170 179 207 233 249 267 277 267 263 246 238 237 237 240 238 231 222 220 221 223 222 222 222 218 216 216 218 217 212 208 206 203 202 203 203
188 181 187 184 174 169 178 178 173 168 181 203 264 303 297 283 271 251 246 244 243 239 231 227 229 237 234 231 227 226 223 222 218 215 217 217 212 209 208 205 205 204 204
191 184 193 183 181 184 190 184 174 162 162 134 96 335 320 302 272 261 244 238 246 243 229 221 222 229 243 238 233 229 227 227 223 220 220 216 210 208 210 207 207 206 208
193 193 190 190 186 180 182 181 170 163 173 152 148 120 334 325 305 275 244 230 248 247 237 230 221 221 231 238 242 236 234 232 227 224 223 218 212 211 210 209 208 209 211
191 192 192 190 188 185 190 193 186 178 185 185 165 154 162 235 292 302 265 245 241 233 241 238 227 226 229 231 243 245 242 239 234 229 225 222 217 212 211 213 214 213 213
195 191 187 185 185 189 191 195 188 180 171 186 183 189 183 168 179 291 308 293 269 242 243 241 236 230 227 229 233 243 243 237 234 232 229 227 223 216 214 218 222 220 217
196 195 185 181 183 190 196 192 181 181 180 184 184 178 188 179 177 190 267 301 311 272 253 244 237 234 229 227 231 239 240 235 231 230 228 226 222 221 218 221 224 224 223
196 200 190 186 188 189 196 198 190 189 192 188 190 183 178 182 191 189 223 251 272 280 279 258 245 239 237 232 237 240 236 234 232 229 227 226 228 226 223 225 227 228 227
201 206 192 190 192 195 194 186 184 195 196 193 198 205 205 210 181 175 195 230 256 282 290 270 251 244 242 234 242 243 238 231 229 227 226 227 227 227 227 227 229 231 230
202 190 182 188 192 189 187 180 183 201 201 206 209 206 208 214 199 188 186 186 240 273 270 271 276 244 246 244 250 245 244 234 230 226 225 226 227 228 229 229 228 229 227
184 178 175 177 184 183 182 180 191 205 195 209 215 211 213 217 211 207 198 192 199 240 262 258 260 265 257 250 255 248 247 243 234 230 228 229 230 231 230 228 226 223 222
174 172 175 182 189 192 187 183 194 202 196 212 212 212 219 215 210 209 207 208 207 214 245 248 242 266 266 271 266 250 250 252 242 232 228 229 232 233 232 231 229 224 221
169 177 185 189 196 202 198 192 205 201 209 223 223 218 231 222 214 215 210 210 213 211 240 263 249 261 253 268 285 270 258 249 246 237 235 236 236 234 234 234 232 227 225
179 187 189 192 199 199 195 196 214 212 214 228 233 224 234 230 225 227 221 223 222 217 228 257 267 269 262 267 271 267 265 254 251 243 239 240 241 238 234 234 236 232 228
183 194 191 199 206 203 203 206 210 216 223 233 236 234 235 228 238 240 234 232 229 225 220 236 260 264 274 286 287 279 272 273 266 252 240 242 244 243 238 235 235 234 229
192 204 206 209 210 207 204 208 212 221 231 241 244 241 238 228 231 231 229 229 227 223 218 230 249 263 267 272 265 267 275 269 272 270 261 254 251 247 244 239 236 231 227
205 202 200 212 210 206 208 204 215 227 236 249 254 248 243 239 232 226 229 224 215 218 220 227 243 252 256 255 252 248 262 281 271 261 271 267 258 256 249 241 237 231 228
205 193 202 210 217 226 222 215 213 222 224 233 250 255 253 247 247 242 242 230 212 210 218 224 232 240 248 246 243 243 249 264 274 250 254 268 253 256 252 241 234 227 225
199 211 216 215 229 240 230 222 219 217 219 223 229 240 250 254 247 249 253 249 237 227 215 215 228 236 238 233 227 235 232 237 251 257 239 266 257 261 258 247 232 229 228
202 216 225 225 234 249 241 233 221 214 222 230 226 220 224 246 244 229 232 246 258 254 236 230 238 246 247 239 224 231 240 250 269 260 233 257 260 262 273 257 234 230 231
214 227 230 227 236 258 241 232 204 210 230 247 240 222 215 230 239 210 206 239 268 276 261 244 244 255 258 247 225 206 213 227 263 265 222 235 258 271 272 263 249 233 234
215 231 246 241 239 251 237 217 191 191 217 245 252 240 230 231 236 208 204 219 247 261 273 284 271 267 258 243 218 214 214 219 234 253 222 215 244 258 275 255 249 240 233